Theta_e
292 292 291 292 292 292 292 292 291 291 291 292 292 293 293 294 294 295 296 297 298 299 300 300 300 301 301 301 302 302 303 303 303 303 304 304 304 304 305 305 306 306 308 311 313 314 314 316 318 317 317 317 316 314 313 315 318 321 323 324 324 324
291 291 291 291 291 291 292 292 291 291 291 291 292 292 293 293 294 294 295 296 297 298 299 299 300 300 300 301 301 302 302 303 303 303 304 304 304 304 304 305 306 306 307 308 310 311 312 315 318 318 318 318 317 316 314 315 317 320 322 323 325 327
291 291 291 291 291 291 291 292 291 291 291 291 291 292 292 293 293 294 294 295 296 297 298 299 299 300 300 300 300 301 302 302 303 303 304 304 304 304 305 305 305 306 307 307 308 309 310 311 314 316 318 319 318 317 316 316 317 319 320 322 324 325
291 291 291 290 290 291 291 292 291 291 291 291 291 292 293 293 294 294 294 295 295 296 297 298 299 299 300 300 300 300 301 301 302 303 304 304 304 304 304 305 306 306 307 308 308 308 309 309 310 312 315 319 319 318 318 318 318 318 320 321 322 322
291 291 290 290 290 291 291 292 292 291 290 290 291 292 293 294 294 294 294 295 295 296 297 298 298 299 299 300 300 300 300 301 301 302 303 304 304 304 304 304 305 306 307 308 308 308 309 309 309 310 312 316 319 319 319 319 319 319 320 320 321 322
291 290 290 289 290 290 291 291 291 290 290 290 290 292 293 294 294 294 294 295 295 295 296 297 298 298 299 299 300 300 300 300 300 301 302 303 304 304 304 304 304 305 306 307 307 308 308 308 309 309 309 311 314 317 319 319 319 319 320 320 320 321
290 290 289 289 289 289 290 290 290 290 291 291 291 292 293 294 294 294 294 294 295 295 296 296 297 298 298 299 299 300 300 300 300 300 301 302 303 304 304 304 304 304 305 306 307 308 308 308 309 309 310 310 310 313 315 316 317 319 320 321 321 321
291 290 289 289 288 289 289 290 290 291 292 293 293 293 293 294 294 294 294 294 294 295 295 296 296 297 298 298 299 299 300 300 300 300 300 301 302 303 304 304 304 304 304 305 306 307 308 308 309 309 309 309 308 310 312 313 315 318 319 320 320 320
291 291 289 289 288 289 289 289 290 292 292 292 293 293 293 293 294 294 294 294 294 294 295 295 296 296 297 298 298 299 299 300 300 299 299 300 301 302 304 304 304 304 304 305 305 306 307 307 308 309 309 308 308 309 310 311 313 315 317 318 318 319
291 291 289 288 289 289 289 289 290 291 292 292 292 292 292 292 293 293 293 293 294 294 294 294 295 295 296 297 298 298 299 299 299 300 299 299 300 301 303 304 304 304 304 305 305 305 306 306 307 308 307 307 307 308 309 310 311 313 315 317 317 318
291 290 289 288 289 290 289 289 290 291 291 291 291 291 291 291 291 292 292 292 293 293 293 294 294 295 295 296 297 298 298 298 299 299 299 299 299 300 302 303 304 303 303 304 304 305 305 305 306 306 306 306 307 308 309 310 310 311 313 315 316 317
291 290 289 288 289 290 290 289 290 290 290 290 290 290 290 290 290 290 291 291 291 292 292 293 293 294 295 295 296 297 297 298 298 298 299 299 299 299 300 302 303 304 303 303 304 304 304 305 305 305 305 306 307 308 308 309 310 310 311 313 314 315
290 289 289 288 289 291 290 289 290 290 289 289 289 289 289 289 289 290 290 290 290 291 291 292 292 293 294 295 295 296 296 297 297 298 298 299 299 299 299 300 301 303 303 303 303 304 304 305 305 305 305 306 306 307 307 308 308 309 310 311 312 313
290 289 288 288 290 291 290 289 289 289 289 289 289 288 289 289 289 289 289 289 289 290 290 291 291 292 293 294 295 295 296 296 297 297 297 298 298 298 299 299 299 301 302 302 303 303 304 304 305 305 305 306 306 306 306 307 307 308 308 309 309 310
290 289 288 289 291 292 290 289 289 289 288 288 288 288 288 288 288 288 288 289 289 289 289 290 290 291 292 292 293 295 295 296 296 297 297 297 298 298 298 298 298 299 301 302 302 302 303 304 304 305 305 306 306 306 306 306 307 307 308 308 308 308
290 289 289 290 292 291 290 289 289 288 288 288 287 287 287 287 288 288 288 288 288 288 289 289 289 290 291 291 292 293 295 295 296 296 296 297 297 297 298 298 298 298 300 301 302 302 302 303 304 304 304 305 305 306 306 306 306 306 307 307 307 307
290 289 289 290 291 290 289 289 288 288 288 287 287 287 287 287 287 287 287 287 287 288 288 288 289 289 290 290 291 292 293 294 295 295 296 296 297 297 297 298 298 298 298 299 301 301 302 302 303 303 304 304 304 305 305 305 305 305 306 306 306 307
290 289 290 291 291 290 289 289 288 287 287 287 287 287 286 286 287 287 287 287 287 287 287 287 288 289 289 289 290 291 292 293 294 295 295 296 296 297 297 297 298 298 297 298 299 301 301 301 302 303 303 303 304 304 304 304 304 304 305 305 306 306
289 289 291 292 291 290 289 288 288 287 287 287 287 287 286 286 286 286 286 286 286 287 287 287 287 288 288 289 289 290 291 292 293 294 295 295 296 296 297 297 298 298 297 297 298 299 300 301 301 302 303 303 303 304 304 304 304 304 304 305 305 305
289 290 291 292 290 289 288 288 287 287 287 287 287 287 287 286 286 286 286 286 286 286 286 286 286 287 287 288 288 289 289 291 292 294 294 295 295 296 296 297 297 298 297 297 297 298 299 300 300 301 301 302 303 303 304 304 304 304 304 305 305 305
290 291 292 291 290 289 288 287 287 287 286 286 286 286 286 286 286 286 286 286 285 286 286 286 286 286 287 287 288 288 288 290 292 293 294 294 295 295 296 296 297 298 298 297 297 298 298 299 300 300 301 302 303 303 304 304 304 304 304 305 305 305
290 291 291 290 289 288 287 287 286 286 286 286 286 286 286 286 286 286 285 285 285 285 285 285 285 286 286 287 287 287 288 289 291 292 293 294 294 295 295 296 296 297 298 298 297 297 297 297 299 300 301 301 302 303 304 304 304 304 304 304 304 305
291 291 290 289 288 288 287 287 286 286 286 286 286 286 286 286 285 285 285 285 285 285 285 285 285 286 286 286 287 287 288 289 290 291 292 293 294 295 295 296 296 297 297 298 297 296 296 296 297 299 300 301 302 302 303 303 303 303 304 304 304 304
290 290 289 288 288 287 287 286 286 286 286 286 286 286 286 285 285 285 285 285 285 285 285 285 285 285 286 286 287 287 288 288 289 291 292 292 293 294 295 296 296 296 297 298 297 295 295 296 297 298 300 301 301 302 302 303 302 302 303 304 304 304
289 288 288 288 287 287 287 286 286 286 286 286 286 285 285 285 285 285 285 285 285 285 285 285 285 285 286 286 287 287 287 288 289 290 291 292 293 294 295 295 296 296 297 297 297 296 294 295 296 297 299 300 301 302 301 302 302 302 302 303 304 304
288 288 288 287 287 287 287 286 286 286 286 285 285 285 285 285 285 285 284 284 284 285 285 285 285 285 285 286 286 287 287 288 288 289 290 291 292 293 294 295 295 296 296 297 297 296 294 294 295 296 298 299 301 301 301 300 301 302 302 302 303 304
288 288 287 287 287 286 286 286 285 285 285 285 285 285 285 285 284 284 284 284 284 284 284 284 285 285 285 285 286 286 287 287 288 288 289 290 291 292 293 294 294 295 296 296 296 295 294 294 294 295 297 298 299 301 301 300 300 301 302 302 303 304
287 287 287 287 286 286 285 285 285 285 285 285 285 284 284 284 284 284 284 284 284 284 284 284 284 285 285 285 285 285 286 287 287 287 288 289 290 291 292 293 293 294 294 295 294 294 294 294 293 293 295 296 298 300 301 300 300 301 302 302 302 303
287 287 287 286 285 285 285 285 285 285 284 284 284 284 284 284 284 284 284 284 284 284 284 284 284 284 284 285 285 285 285 286 286 287 287 288 289 290 291 292 292 293 293 293 293 293 293 293 293 293 293 294 295 298 299 300 300 301 302 303 303 303
286 286 285 285 285 285 284 284 284 284 284 284 284 284 283 283 283 283 283 284 284 284 284 284 284 284 284 284 285 285 285 285 286 286 287 287 288 289 289 290 291 292 291 291 291 291 291 292 292 292 292 292 293 295 297 299 300 300 301 303 304 304
283 283 284 284 284 284 284 284 284 283 283 283 283 283 283 283 283 283 283 283 283 283 284 284 284 284 284 284 284 285 285 285 285 285 286 286 287 287 288 289 291 291 290 289 289 289 289 290 292 292 292 292 293 294 295 296 299 300 300 301 303 304
282 282 283 283 283 283 283 283 283 283 283 283 283 283 283 283 283 283 283 283 283 283 283 284 284 284 284 284 284 284 285 285 285 285 285 286 286 287 287 288 289 289 289 289 289 289 289 290 290 291 292 292 293 293 294 295 297 299 300 300 301 303
281 282 282 282 282 282 282 282 282 282 282 282 282 282 282 282 282 282 283 283 283 283 283 283 283 283 283 283 284 284 284 285 285 285 285 285 286 286 287 288 289 289 289 289 289 290 290 290 290 290 291 292 292 293 294 295 296 298 299 299 299 300
281 281 281 281 281 282 282 282 282 282 282 282 282 282 282 282 282 282 282 282 283 283 283 283 283 283 283 283 283 283 284 284 285 285 285 285 285 286 287 287 288 289 290 290 290 290 290 290 290 291 292 292 292 292 293 294 295 297 299 298 297 298
280 280 280 281 281 281 281 281 281 281 281 282 281 281 281 281 282 282 282 282 282 282 282 282 282 282 283 283 283 283 283 283 284 284 285 285 285 285 286 287 287 288 289 290 290 290 290 290 291 291 292 292 293 293 293 294 294 296 298 298 296 297
279 280 280 280 281 281 281 281 281 281 281 281 281 281 281 281 281 281 281 282 282 282 282 282 282 282 282 282 282 282 283 283 283 283 284 284 285 286 286 286 287 288 289 290 290 290 290 291 291 291 292 293 293 293 294 294 294 295 297 297 296 296
279 280 280 280 280 280 280 280 280 280 280 280 280 280 281 281 281 281 281 281 281 281 282 282 282 281 281 281 282 282 282 282 283 283 283 284 284 285 286 286 287 287 288 289 289 290 290 290 291 292 292 292 293 293 293 294 294 295 296 297 296 296
279 279 279 279 279 279 279 279 280 280 280 280 280 280 280 280 280 280 280 281 281 281 281 281 281 281 281 281 281 281 281 282 282 282 283 283 284 284 285 286 287 287 288 288 288 289 289 290 291 291 292 292 292 292 292 293 294 294 295 296 296 296
Wind_Speed
12 14 15 16 16 17 18 18 18 18 18 17 17 18 18 18 19 18 18 19 19 20 21 23 24 24 24 22 20 19 19 20 21 22 24 26 27 29 31 32 34 35 36 37 39 39 39 40 39 39 39 39 40 41 43 46 48 49 48 46 45 45
13 15 16 17 17 18 18 19 19 19 19 18 17 17 17 17 18 18 19 18 18 19 19 21 23 24 25 25 23 22 21 20 21 22 23 24 25 27 29 31 33 34 35 37 38 39 39 40 39 38 38 39 40 40 41 43 47 49 50 47 46 46
12 14 16 17 18 18 18 19 19 19 18 18 17 17 16 17 17 17 18 18 18 18 18 19 20 22 24 26 26 25 23 22 21 21 21 22 24 26 27 29 31 32 34 35 36 38 39 41 40 39 38 40 41 41 40 41 44 47 49 49 49 49
9 12 14 16 16 16 17 18 19 19 18 17 17 16 16 16 16 16 17 17 18 18 18 18 18 20 22 25 26 27 25 23 22 22 21 21 23 24 26 28 29 30 31 33 34 36 37 39 40 40 40 41 41 41 40 40 41 44 46 48 50 50
9 11 12 13 13 14 16 17 18 19 18 17 17 17 16 15 15 15 15 16 17 17 18 18 17 17 19 22 25 27 28 26 24 23 22 21 21 23 25 27 28 29 31 32 34 36 37 38 38 39 40 42 42 42 41 40 40 42 43 45 48 49
11 13 12 11 11 12 15 16 17 17 18 18 18 18 17 17 16 16 15 16 16 16 17 18 17 17 18 20 22 25 28 28 27 24 23 22 21 21 24 26 27 29 31 31 32 34 35 37 38 38 40 42 44 45 44 43 42 42 43 44 46 48
13 14 14 12 11 12 14 16 17 17 17 17 17 18 18 19 19 18 17 17 16 16 16 17 17 17 17 19 20 23 25 28 29 27 25 24 23 21 22 24 26 28 30 32 32 32 33 34 36 38 39 40 42 45 46 45 45 45 45 45 45 47
16 16 15 13 12 13 14 15 16 15 15 16 16 17 18 19 20 20 19 18 18 17 16 16 17 17 17 18 19 21 23 26 29 30 29 26 24 23 21 22 25 26 29 31 32 33 33 33 35 37 38 38 40 43 44 45 46 48 48 47 47 49
19 19 16 13 13 14 15 15 14 13 14 15 15 15 16 17 19 20 20 20 20 19 18 17 17 17 17 18 18 20 21 23 25 29 31 29 26 25 23 22 23 25 27 29 31 33 33 33 35 36 36 37 39 41 43 44 45 47 48 49 50 51
19 19 18 15 13 14 14 14 13 13 13 14 14 15 15 16 17 18 20 20 21 21 21 20 20 19 18 18 18 19 20 21 23 25 29 31 29 27 25 23 22 23 26 29 30 32 33 34 36 37 36 37 38 40 41 42 44 45 47 49 50 51
19 20 19 16 14 15 14 13 13 13 12 12 13 14 15 16 17 17 18 19 20 21 22 22 22 22 21 20 19 19 19 20 21 23 25 29 31 29 26 24 23 22 25 28 30 31 33 34 36 36 35 35 36 38 39 40 42 44 46 48 49 50
21 21 20 18 15 16 14 12 13 13 12 12 13 14 15 16 17 18 18 19 20 21 22 23 23 23 23 22 21 20 19 19 20 21 23 26 29 31 28 26 24 22 22 26 29 30 31 33 34 34 33 33 35 37 38 39 41 42 44 46 48 49
22 23 22 18 16 17 15 12 12 12 12 12 12 13 14 15 16 17 19 20 20 21 22 23 24 24 24 24 23 22 21 20 20 20 21 23 26 29 30 28 26 24 22 23 26 29 30 32 32 32 31 31 33 35 37 39 41 42 43 45 47 49
23 24 21 17 16 17 15 13 13 12 11 11 11 12 14 15 16 17 18 20 21 21 22 23 23 24 24 24 24 24 23 23 21 20 20 21 23 26 29 29 27 26 24 22 24 27 30 31 32 31 30 29 30 33 35 37 39 41 42 43 45 48
22 22 18 15 17 18 15 13 12 11 10 10 10 11 13 15 16 17 18 19 20 21 22 23 23 24 24 24 24 24 24 24 23 22 21 21 21 23 27 29 28 27 25 23 22 24 28 30 31 31 30 29 28 30 32 35 37 39 41 41 42 44
21 20 18 18 20 18 15 13 12 10 10 9 9 10 12 13 15 17 18 19 20 21 22 23 24 24 24 24 24 24 25 25 25 23 22 22 21 22 24 27 28 27 25 24 22 22 25 28 30 30 31 30 29 29 31 33 35 36 38 39 40 41
21 20 20 23 22 18 15 13 11 10 9 9 10 11 11 12 13 15 17 18 20 21 22 22 23 24 25 25 25 24 24 25 26 25 23 22 22 22 23 25 27 27 25 24 23 23 24 26 28 29 30 31 31 31 32 33 35 35 35 37 38 40
21 22 24 24 21 17 15 12 11 10 9 9 11 11 11 12 13 14 15 16 19 20 22 23 24 24 25 25 26 25 25 25 26 26 25 24 23 23 23 23 24 26 26 24 24 24 24 24 25 27 29 29 30 31 33 35 35 35 35 35 36 37
21 24 25 23 20 16 14 11 10 9 8 9 10 11 12 13 14 15 15 16 17 19 21 23 24 25 25 26 27 27 26 26 26 26 26 26 24 24 25 24 24 25 25 24 23 23 24 23 23 25 28 28 28 29 32 35 36 36 36 35 34 34
23 25 25 22 18 15 12 10 9 8 8 9 10 11 12 13 15 15 16 17 18 18 20 22 23 25 25 26 27 28 28 27 27 27 26 27 26 25 26 26 25 25 25 25 23 21 23 24 23 23 25 27 27 27 30 33 35 37 37 35 33 32
25 25 23 20 18 14 12 10 8 7 8 10 11 12 13 14 15 16 17 18 19 19 20 21 23 24 25 26 26 27 28 28 28 28 27 27 26 26 26 27 27 26 26 25 24 21 21 23 24 24 24 26 27 27 28 30 32 35 37 35 33 32
26 25 22 20 17 14 12 9 7 7 8 9 11 12 14 15 16 17 18 19 20 20 21 21 23 24 25 26 26 27 28 29 29 29 28 27 27 26 26 26 27 28 27 26 24 21 19 20 23 24 24 25 27 28 28 28 30 33 35 35 34 33
25 24 22 19 16 14 10 8 7 6 7 9 10 12 14 15 17 18 19 19 20 21 21 21 22 23 24 25 26 26 27 28 29 30 29 29 28 27 26 26 26 27 28 27 25 22 19 18 20 23 24 24 25 27 29 29 29 30 31 33 34 33
24 22 20 18 15 12 9 7 6 5 6 8 10 12 14 15 17 18 19 20 20 21 21 22 22 23 24 25 25 26 26 26 27 29 29 29 29 28 26 25 26 27 27 27 25 23 19 17 18 20 23 24 24 26 29 32 31 29 28 30 32 33
23 20 18 16 13 11 8 6 5 5 6 8 10 12 14 15 16 18 18 19 20 21 21 22 22 23 24 24 25 25 26 26 26 27 28 29 29 29 27 26 26 26 26 27 27 24 20 16 15 17 20 22 24 25 27 30 32 30 27 28 30 32
21 19 16 13 12 9 7 6 5 5 6 7 9 12 14 15 16 17 18 19 20 21 21 22 22 22 23 24 25 25 25 25 26 26 27 28 29 29 28 27 26 26 26 27 28 26 22 19 15 15 18 20 23 24 24 25 28 30 28 28 29 30
18 17 15 12 10 9 7 5 4 4 5 7 9 11 13 15 16 18 19 20 20 21 21 22 22 21 22 23 24 25 25 26 26 26 26 27 28 28 28 28 27 27 28 28 29 28 25 22 18 14 15 18 21 23 22 21 24 27 28 28 29 29
16 15 13 11 9 7 5 4 3 3 4 6 8 10 12 15 16 18 19 20 21 21 21 22 22 22 22 22 23 24 25 26 27 26 26 26 27 27 27 27 27 28 29 30 30 30 28 25 22 17 14 16 19 21 21 20 20 23 25 27 28 28
13 12 11 9 8 5 3 2 1 3 4 6 7 9 11 14 15 17 18 19 20 21 21 22 22 22 22 22 23 24 24 25 26 27 26 25 25 26 26 26 27 28 30 31 31 31 30 28 26 21 17 16 18 19 20 19 18 19 22 25 27 28
8 8 7 6 5 4 2 1 2 3 5 6 8 9 11 13 14 16 17 18 19 20 21 22 22 23 23 23 23 24 24 25 26 26 26 24 23 24 25 26 26 27 27 28 30 31 32 31 29 26 22 19 18 19 19 19 18 18 19 22 27 28
5 4 4 4 3 2 1 1 2 4 6 7 8 10 11 12 14 16 17 18 19 19 20 21 22 23 24 24 24 24 24 25 26 27 26 23 21 22 23 23 24 23 23 23 25 27 30 32 32 30 27 23 19 18 19 20 19 18 17 18 23 27
4 3 3 2 2 1 2 3 4 6 7 8 10 12 13 14 15 16 18 19 20 20 21 22 23 24 25 25 25 25 25 25 25 26 27 25 22 21 20 19 19 18 18 20 22 24 26 29 31 31 29 25 20 18 18 19 20 19 17 16 18 24
4 3 2 2 2 2 4 5 6 8 9 11 12 14 16 17 18 18 19 20 21 22 23 23 24 25 25 26 26 27 27 27 26 25 26 27 25 23 20 17 15 14 15 17 21 24 24 25 27 29 29 26 22 19 18 18 20 21 19 16 16 21
3 3 3 3 3 4 5 7 8 10 11 13 14 16 18 19 20 20 21 22 23 24 24 24 25 25 26 26 27 27 28 29 29 28 26 26 27 26 24 21 18 16 15 15 16 19 21 23 24 27 28 26 22 19 18 18 20 22 22 18 16 20
3 4 4 5 5 6 7 8 9 11 12 14 16 17 18 19 20 21 22 23 24 25 26 26 26 26 26 27 27 28 28 28 30 31 30 29 28 27 26 24 22 20 17 14 12 13 16 21 24 25 26 26 22 18 18 19 20 22 23 21 19 19
4 5 6 7 7 7 8 9 10 12 13 15 17 18 19 19 20 20 21 23 24 25 26 27 27 27 27 27 27 27 28 27 28 29 32 32 32 30 29 28 26 24 20 15 13 13 15 20 23 24 24 24 21 17 16 18 20 21 23 23 22 20
5 6 7 8 9 9 10 11 12 13 15 16 17 18 18 19 19 19 20 22 23 25 26 27 27 27 27 27 27 27 28 28 28 28 30 31 32 32 32 31 30 28 24 19 15 15 17 19 21 23 22 20 19 16 15 17 19 20 21 23 24 23
6 7 8 9 10 11 11 12 13 14 15 16 17 17 17 18 18 19 20 21 22 24 25 26 27 27 27 27 27 27 28 28 28 28 28 29 30 30 30 31 32 31 28 23 19 18 18 18 19 20 19 16 16 16 15 17 19 19 19 20 23 25
Wind_Direction
358 355 352 350 346 341 343 344 343 343 341 339 338 337 338 338 339 341 345 348 350 351 353 352 351 348 343 335 324 312 303 297 292 286 279 275 271 267 263 261 257 251 247 247 249 251 255 257 257 256 256 253 248 245 243 239 236 234 234 235 235 236
356 352 348 344 340 337 335 335 334 333 332 331 329 328 329 330 332 334 335 338 341 344 348 351 351 350 348 343 335 324 312 303 297 292 286 279 275 271 267 263 259 256 251 249 249 249 250 252 252 254 254 253 249 246 243 239 236 234 233 231 230 231
351 346 341 337 334 331 327 324 324 324 324 323 322 321 321 322 324 326 327 329 331 335 340 345 348 349 349 347 343 334 322 310 301 296 291 283 276 272 270 267 263 260 256 252 251 250 250 249 249 249 250 250 249 247 244 240 236 235 234 231 228 229
341 336 333 331 327 321 316 314 316 318 319 317 316 316 316 316 317 318 319 322 324 326 331 337 342 347 347 346 345 341 334 321 307 300 294 287 281 274 269 266 265 263 260 256 253 253 253 251 249 247 245 245 247 247 245 241 237 236 235 233 231 231
328 325 323 321 317 309 306 308 311 314 314 312 310 311 312 312 311 312 312 314 317 319 322 327 334 340 342 343 342 342 340 332 319 306 297 290 284 279 273 266 262 261 259 256 254 253 253 253 252 248 243 241 241 242 243 242 241 240 237 234 232 231
323 321 317 313 306 300 300 303 309 314 313 312 310 309 310 311 310 311 310 310 312 313 315 318 323 330 334 336 337 338 339 337 331 318 304 294 286 280 277 272 265 260 258 257 256 255 255 254 253 251 246 241 239 238 239 240 242 243 240 236 234 232
325 318 311 307 302 297 299 302 310 316 316 316 315 312 310 310 310 311 310 310 309 309 311 313 315 321 326 329 332 334 335 337 336 330 317 303 291 282 278 275 270 263 257 255 255 255 255 255 254 251 247 245 244 241 239 239 240 240 239 237 235 233
324 314 303 298 296 294 296 303 312 317 317 318 320 317 314 312 311 311 310 310 310 309 310 311 312 317 321 323 327 329 331 333 335 334 329 317 302 289 279 273 271 268 262 256 253 252 253 253 253 251 248 249 249 246 242 239 238 237 237 237 236 234
317 307 291 283 288 291 294 303 311 314 315 318 320 317 316 315 313 314 313 312 312 312 312 312 315 318 319 320 323 325 327 329 332 334 332 327 315 300 287 275 269 268 265 261 256 252 251 251 252 250 248 251 252 249 244 240 238 238 238 237 236 235
305 291 277 274 280 283 290 299 305 308 311 314 317 317 318 320 318 319 318 316 315 315 314 313 314 317 319 320 320 322 324 326 328 331 332 330 324 312 297 284 273 266 264 263 259 254 251 250 250 249 249 252 252 249 246 242 240 238 238 237 237 236
287 272 264 267 270 274 283 291 294 302 307 308 314 318 320 324 326 325 324 323 321 319 317 315 313 313 316 318 319 318 321 324 326 327 329 330 327 320 307 291 278 270 266 263 261 259 255 252 251 250 250 251 249 247 245 244 242 240 239 238 238 238
268 257 253 256 260 265 273 281 285 292 300 305 312 317 321 325 328 329 330 329 328 325 322 320 317 313 311 313 317 319 319 321 324 325 327 329 328 324 316 300 284 275 270 267 264 262 259 254 253 254 252 249 246 245 244 244 243 242 241 240 239 239
255 249 248 248 250 257 263 271 277 282 291 301 309 316 321 324 326 330 333 333 333 330 327 325 322 319 315 311 312 316 319 320 322 324 326 327 328 326 321 311 295 281 275 272 267 263 259 256 255 255 254 250 245 243 243 244 244 244 243 242 241 241
250 245 247 245 244 251 258 265 270 278 287 295 305 313 319 324 328 331 333 332 333 333 332 329 326 324 322 316 310 310 315 319 322 324 325 326 328 326 323 318 307 291 280 274 271 266 260 257 256 255 254 252 247 243 242 243 245 246 246 245 245 244
248 241 243 242 240 248 257 262 267 276 287 295 306 314 317 324 330 333 333 333 334 334 333 332 330 327 326 323 317 310 309 314 321 324 325 325 327 327 324 321 314 302 288 280 277 274 267 261 257 255 253 250 248 245 243 242 244 246 248 249 249 248
245 237 235 234 238 247 254 259 264 272 285 300 312 318 322 328 332 334 335 336 336 335 334 333 332 331 329 327 324 317 310 309 314 321 325 325 326 328 326 323 318 310 298 286 281 281 277 269 262 257 254 250 246 244 243 242 243 245 248 251 252 252
243 235 230 230 236 243 246 250 259 270 287 304 314 323 330 333 335 336 337 337 337 336 336 335 334 333 332 330 328 325 319 312 310 314 320 325 327 328 327 325 320 315 305 292 283 281 281 279 272 264 258 253 248 243 242 242 243 244 246 250 252 253
242 233 226 227 231 234 235 241 253 268 288 305 315 324 330 332 334 337 338 339 338 337 337 337 336 335 334 332 331 329 327 321 314 311 313 319 325 327 327 326 323 317 309 297 287 281 281 284 280 271 265 259 253 248 245 243 242 242 243 245 249 251
236 226 220 222 225 226 227 234 248 267 288 301 310 317 322 326 329 333 336 339 339 338 338 336 336 336 335 334 333 332 331 328 322 316 312 313 318 324 327 326 324 321 314 304 292 282 281 283 282 278 273 265 256 251 249 246 243 242 241 240 243 248
226 216 214 218 222 219 220 231 247 268 285 296 302 309 315 320 324 328 333 337 337 338 338 336 336 337 336 336 335 334 333 331 327 323 318 313 313 318 323 325 324 323 319 311 299 285 279 280 280 278 275 269 260 254 251 248 246 243 241 238 239 243
219 210 210 215 216 214 217 229 245 265 279 290 299 306 313 318 323 327 331 334 336 337 338 337 336 336 336 336 336 335 334 331 329 326 323 318 313 313 316 321 323 322 321 316 308 293 280 278 278 276 272 269 264 259 253 250 247 245 242 238 236 238
211 206 208 211 211 210 214 224 238 259 275 287 298 306 312 317 322 328 330 332 334 336 337 336 335 335 334 334 334 335 334 332 329 328 326 322 317 313 312 316 319 320 320 319 315 305 290 280 280 278 274 270 266 261 256 253 249 246 243 240 236 235
204 205 206 205 206 205 207 219 233 252 271 287 298 305 312 317 321 326 328 329 332 334 335 335 334 334 334 332 332 332 333 331 329 328 328 325 321 316 312 313 315 317 318 318 318 316 305 289 283 281 277 272 267 261 256 253 250 248 246 243 238 234
197 198 197 196 198 198 199 210 225 244 268 285 297 305 311 316 320 323 326 328 331 332 332 333 333 332 332 332 331 330 330 330 329 329 329 327 324 320 316 313 313 313 315 317 319 321 316 300 286 283 279 273 269 263 256 253 250 247 245 243 239 235
189 188 189 188 189 190 192 201 219 245 268 284 296 304 311 316 319 321 325 328 330 330 330 332 332 332 332 332 331 329 329 329 330 330 330 329 327 323 319 317 315 313 314 316 319 323 326 314 292 282 279 273 268 263 258 256 253 247 241 240 240 237
185 180 182 182 183 186 189 199 222 250 271 288 298 304 310 315 318 322 324 326 328 329 329 330 332 333 334 334 332 331 329 329 330 331 331 330 329 327 323 320 319 317 316 317 319 323 329 327 309 286 277 275 271 265 261 259 257 251 240 235 236 238
177 173 174 175 178 183 189 200 225 255 279 296 303 307 311 314 319 322 323 325 327 327 328 329 332 334 336 335 335 334 332 331 331 332 333 332 331 329 326 323 322 320 319 320 322 324 326 330 326 306 284 277 273 268 264 261 258 254 244 235 231 233
170 170 170 169 170 176 183 194 229 276 294 306 310 311 313 316 319 322 323 324 325 326 328 328 330 334 336 336 336 337 336 335 334 334 335 334 331 330 327 324 323 322 321 321 323 324 325 329 332 327 309 292 283 275 268 264 260 253 245 237 230 226
165 164 164 161 159 161 168 186 267 302 310 315 316 315 317 318 319 321 324 326 326 327 328 329 330 332 334 336 337 337 337 337 336 336 337 336 332 330 328 325 324 323 323 323 323 323 324 327 330 333 327 311 297 286 274 266 261 255 245 236 228 221
151 150 149 145 143 148 161 209 306 314 318 320 320 322 323 322 323 325 326 328 330 330 330 331 332 333 334 336 338 338 337 338 337 337 339 340 337 332 329 325 323 322 322 322 322 323 323 323 325 329 326 311 296 290 284 272 260 255 252 241 227 219
146 138 127 120 122 139 157 325 323 323 329 330 329 331 332 331 331 330 329 330 332 333 333 334 335 335 336 336 337 337 338 339 339 337 337 340 340 337 333 325 319 320 321 319 318 320 320 318 319 322 322 311 291 281 284 280 264 250 254 254 233 217
146 132 117 108 102 67 349 343 339 339 340 340 339 339 339 339 338 335 333 333 335 336 336 337 337 337 337 337 337 337 336 337 339 339 338 338 338 339 337 326 314 313 315 312 310 309 310 312 314 316 318 315 298 276 271 276 269 250 244 256 246 222
143 139 123 92 60 10 352 347 347 346 345 345 345 344 342 341 341 338 336 335 336 337 338 338 337 336 337 338 339 338 336 335 335 337 338 338 336 336 337 333 321 312 307 303 302 302 304 308 313 314 315 316 307 285 268 266 268 255 238 241 253 236
125 110 77 59 33 5 355 350 347 347 347 346 345 343 342 341 340 339 338 336 336 336 336 337 337 336 336 337 339 339 338 336 334 334 335 336 336 335 335 336 334 328 316 304 303 306 308 311 314 313 312 313 309 293 273 263 264 260 242 230 242 245
67 47 36 26 12 360 355 351 348 347 345 343 341 340 340 338 336 336 337 335 334 334 334 335 336 336 336 337 337 337 337 337 336 335 334 334 335 334 333 334 336 335 330 317 310 312 311 310 311 311 311 313 311 296 276 264 261 259 248 231 227 239
35 24 13 4 358 354 351 349 347 344 341 339 338 337 335 333 332 333 334 333 333 332 332 332 333 334 334 334 335 335 335 335 335 335 333 333 333 333 332 332 334 335 335 328 317 316 316 313 312 312 311 314 315 303 281 269 263 260 253 237 224 226
16 5 356 350 348 346 345 344 341 339 338 336 334 332 329 327 327 328 330 330 330 329 329 329 330 330 330 331 333 333 333 333 334 334 332 331 331 330 329 329 330 332 334 333 328 326 324 319 317 316 313 316 320 313 290 276 271 267 260 247 229 219
356 345 342 342 341 339 338 337 334 334 333 331 328 326 324 323 324 325 326 327 326 325 326 326 326 327 328 329 331 331 330 331 332 332 330 328 327 327 327 326 326 328 329 329 330 330 326 324 325 323 319 324 333 325 304 287 280 275 269 258 240 223